TimeMST,TemperatureF,Dew PointF,Humidity,Sea Level PressureIn,VisibilityMPH,Wind Direction,Wind SpeedMPH,Gust SpeedMPH,PrecipitationIn,Events,Conditions,WindDirDegrees,DateUTC
1:45 AM,64,57,71,29.96,2,South,2.2,,,,Mostly Cloudy,180,2014-02-02 08:45:00
4:45 AM,62,57,78,29.98,2,West,2.2,,,,Mostly Cloudy,260,2014-02-02 11:45:00
5:40 AM,53.6,50.0,88,30.00,10.0,South,3.5,-,N/A,,Partly Cloudy,180,2014-02-02 12:40:00
7:40 AM,53.6,50.0,88,30.04,10.0,Calm,Calm,-,N/A,,Scattered Clouds,0,2014-02-02 14:40:00
7:45 AM,58,53,79,30.02,12,South,2.2,,,,Mostly Cloudy,180,2014-02-02 14:45:00
8:43 AM,64.4,55.4,73,30.06,10.0,Calm,Calm,-,N/A,,Partly Cloudy,0,2014-02-02 15:43:00
9:40 AM,69.8,53.6,56,30.06,10.0,North,11.5,-,N/A,,Scattered Clouds,360,2014-02-02 16:40:00
10:40 AM,71.6,51.8,50,30.06,10.0,NNE,13.8,-,N/A,,Scattered Clouds,20,2014-02-02 17:40:00
11:00 AM,72,54,44,30.08,19,ENE,8.9,,,,Partly Cloudy,60,2014-02-02 18:00:00
11:40 AM,71.6,51.8,50,30.04,10.0,NNE,17.3,-,N/A,,Partly Cloudy,20,2014-02-02 18:40:00
12:40 PM,71.6,51.8,50,30.01,10.0,NNW,13.8,-,N/A,,Partly Cloudy,340,2014-02-02 19:40:00
1:40 PM,76,54,36,30.04,19,North,8.9,,,,Clear,0,2014-02-02 20:40:00
1:40 PM,71.6,51.8,50,29.99,10.0,North,18.4,-,N/A,,Scattered Clouds,360,2014-02-02 20:40:00
2:53 PM,71.6,50.0,46,29.96,10.0,North,16.1,-,N/A,,Scattered Clouds,360,2014-02-02 21:53:00
3:41 PM,71.6,50.0,46,29.96,10.0,North,13.8,-,N/A,,Scattered Clouds,360,2014-02-02 22:41:00
4:43 PM,69.8,50.0,49,29.96,10.0,North,13.8,-,N/A,,Scattered Clouds,350,2014-02-02 23:43:00
4:50 PM,73,52,37,29.94,19,North,8.9,,,,,0,2014-02-02 23:50:00
5:46 PM,68.0,48.2,49,29.97,10.0,NNE,11.5,-,N/A,,Partly Cloudy,30,2014-02-03 00:46:00
6:40 PM,66.2,50.0,56,29.98,10.0,NE,6.9,-,N/A,,Clear,40,2014-02-03 01:40:00
7:50 PM,66,54,55,29.98,2,NNE,4.5,,,,,30,2014-02-03 02:50:00
7:52 PM,62.6,50.0,63,30.00,10.0,Calm,Calm,-,N/A,,Clear,0,2014-02-03 02:52:00
8:47 PM,60.8,48.2,63,30.00,10.0,Calm,Calm,-,N/A,,Clear,0,2014-02-03 03:47:00
9:43 PM,57.2,46.4,67,30.01,10.0,Calm,Calm,-,N/A,,Clear,0,2014-02-03 04:43:00
10:40 PM,55.4,44.6,67,30.01,10.0,Calm,Calm,-,N/A,,Clear,0,2014-02-03 05:40:00
10:50 PM,62,54,66,30.00,2,NE,2.2,,,,,40,2014-02-03 05:50:00